Weather History for Erwin, NC

Change the Weather History Date:

Sunday, October 9, 2011

  Actual Average Record
Temperature  
Mean Temperature 66 °F -  
Max Temperature 78 °F 75 °F 95 °F (2007)
Min Temperature 55 °F 50 °F 32 °F (1978)
Cooling Degree Days 2    
Growing Degree Days 16 (Base 50)    
Moisture  
Dew Point 54 °F    
Average Humidity 70    
Maximum Humidity 100    
Minimum Humidity 44    
Precipitation  
Precipitation 0.00 in - - ()
Sea Level Pressure  
Sea Level Pressure 30.38 in    
Wind  
Wind Speed 8 mph (NE)    
Max Wind Speed 14 mph    
Max Gust Speed 22 mph    
Visibility 10 miles    
Events      
Averages and records for this station are not official NWS values.
T = Trace of Precipitation, MM = Missing Value Source: NWS Daily Summary

Daily Weather History Graph

Daily Weather History Graph

Search for Another Location

Airport:

Trip Planner

Search our weather history database for the weather conditions in past years. The results will help you decide how hot, cold, wet, or windy it might be!

Date:

Astronomy

Oct. 09, 2011 Rise Set
Actual Time 7:15 AM EDT 6:47 PM EDT
Civil Twilight 6:50 AM EDT 7:13 PM EDT
Nautical Twilight 6:21 AM EDT 7:42 PM EDT
Astronomical Twilight 5:51 AM EDT 8:12 PM EDT
Moon 5:21 PM EDT (10/9) 5:02 AM EDT (10/9)
Length of Visible Light 12h 22m
Length of Day
11h 32m
Waxing Gibbous, 95% of the Moon is Illuminated
Oct 9
Waxing Gibbous
Oct 11
Full
Oct 19
Last Quarter
Oct 26
New
Nov 2
First Quarter

Hourly Weather History & Observations

Time (EDT) Temp. Dew Point Humidity Pressure Visibility Wind Dir Wind Speed Gust Speed Precip Events Conditions
12:15 AM 59.0 °F 53.6 °F 82% 30.41 in 10.0 mi NE 5.8 mph - N/A   Clear
12:35 AM 59.0 °F 53.6 °F 82% 30.41 in 10.0 mi NE 6.9 mph - N/A   Clear
12:55 AM 59.0 °F 53.6 °F 82% 30.41 in 10.0 mi NE 5.8 mph - N/A   Clear
1:15 AM 59.0 °F 53.6 °F 82% 30.40 in 10.0 mi NNE 6.9 mph - N/A   Clear
1:35 AM 59.0 °F 53.6 °F 82% 30.40 in 10.0 mi NE 5.8 mph - N/A   Clear
1:55 AM 59.0 °F 53.6 °F 82% 30.40 in 10.0 mi NE 6.9 mph - N/A   Clear
2:15 AM 59.0 °F 53.6 °F 82% 30.40 in 10.0 mi NE 5.8 mph - N/A   Clear
2:35 AM 59.0 °F 55.4 °F 88% 30.40 in 10.0 mi NE 5.8 mph - N/A   Clear
2:55 AM 59.0 °F 55.4 °F 88% 30.39 in 10.0 mi NNE 5.8 mph - N/A   Clear
3:15 AM 59.0 °F 55.4 °F 88% 30.38 in 10.0 mi NNE 4.6 mph - N/A   Clear
3:35 AM 59.0 °F 55.4 °F 88% 30.38 in 10.0 mi NNE 6.9 mph - N/A   Clear
3:55 AM 59.0 °F 55.4 °F 88% 30.38 in 10.0 mi NNE 6.9 mph - N/A   Clear
4:15 AM 57.2 °F 55.4 °F 94% 30.38 in 10.0 mi NNE 5.8 mph - N/A   Clear
4:35 AM 57.2 °F 55.4 °F 94% 30.38 in 10.0 mi NNE 6.9 mph - N/A   Clear
4:55 AM 57.2 °F 55.4 °F 94% 30.38 in 10.0 mi NNE 6.9 mph - N/A   Clear
5:15 AM 55.4 °F 55.4 °F 100% 30.38 in 10.0 mi NNE 5.8 mph - N/A   Scattered Clouds
5:35 AM 57.2 °F 55.4 °F 94% 30.39 in 10.0 mi NNE 6.9 mph - N/A   Mostly Cloudy
5:55 AM 57.2 °F 55.4 °F 94% 30.39 in 10.0 mi NNE 6.9 mph - N/A   Mostly Cloudy
6:15 AM 57.2 °F 55.4 °F 94% 30.38 in 10.0 mi NNE 6.9 mph - N/A   Scattered Clouds
6:35 AM 57.2 °F 55.4 °F 94% 30.39 in 10.0 mi NE 8.1 mph - N/A   Clear
6:55 AM 55.4 °F 53.6 °F 94% 30.40 in 10.0 mi NE 5.8 mph - N/A   Clear
7:15 AM 57.2 °F 53.6 °F 88% 30.40 in 10.0 mi NE 5.8 mph - N/A   Clear
7:35 AM 57.2 °F 55.4 °F 94% 30.40 in 10.0 mi NNE 5.8 mph - N/A   Clear
7:55 AM 57.2 °F 53.6 °F 88% 30.40 in 10.0 mi NNE 8.1 mph - N/A   Clear
8:15 AM 59.0 °F 53.6 °F 82% 30.40 in 10.0 mi NE 10.4 mph - N/A   Clear
8:35 AM 60.8 °F 53.6 °F 77% 30.40 in 10.0 mi NE 8.1 mph - N/A   Clear
8:55 AM 60.8 °F 53.6 °F 77% 30.40 in 10.0 mi NE 10.4 mph - N/A   Clear
9:15 AM 62.6 °F 53.6 °F 72% 30.40 in 10.0 mi NE 9.2 mph - N/A   Clear
9:35 AM 64.4 °F 51.8 °F 64% 30.40 in 10.0 mi NE 11.5 mph - N/A   Clear
9:55 AM 66.2 °F 51.8 °F 60% 30.40 in 10.0 mi NE 10.4 mph 16.1 mph N/A   Clear
10:15 AM 68.0 °F 50.0 °F 52% 30.41 in 10.0 mi ENE 10.4 mph - N/A   Clear
10:35 AM 69.8 °F 50.0 °F 49% 30.41 in 10.0 mi NE 10.4 mph - N/A   Clear
10:55 AM 69.8 °F 51.8 °F 53% 30.41 in 10.0 mi NE 6.9 mph - N/A   Clear
11:15 AM 71.6 °F 51.8 °F 50% 30.41 in 10.0 mi ENE 9.2 mph 16.1 mph N/A   Clear
11:35 AM 71.6 °F 51.8 °F 50% 30.40 in 10.0 mi NE 10.4 mph - N/A   Clear
11:55 AM 73.4 °F 53.6 °F 50% 30.40 in 10.0 mi ENE 9.2 mph - N/A   Clear
12:15 PM 73.4 °F 55.4 °F 53% 30.40 in 10.0 mi ENE 11.5 mph - N/A   Clear
12:35 PM 73.4 °F 55.4 °F 53% 30.39 in 10.0 mi ENE 11.5 mph 17.3 mph N/A   Clear
12:55 PM 75.2 °F 55.4 °F 50% 30.38 in 10.0 mi NE 13.8 mph 17.3 mph N/A   Clear
1:15 PM 77.0 °F 55.4 °F 47% 30.37 in 10.0 mi ENE 10.4 mph 17.3 mph N/A   Clear
1:35 PM 77.0 °F 55.4 °F 47% 30.35 in 10.0 mi NE 11.5 mph 17.3 mph N/A   Clear
1:55 PM 78.8 °F 55.4 °F 44% 30.34 in 10.0 mi NE 11.5 mph 17.3 mph N/A   Clear
2:15 PM 78.8 °F 55.4 °F 44% 30.33 in 10.0 mi NE 11.5 mph 21.9 mph N/A   Clear
2:35 PM 78.8 °F 55.4 °F 44% 30.33 in 10.0 mi East 11.5 mph 17.3 mph N/A   Mostly Cloudy
2:55 PM 77.0 °F 55.4 °F 47% 30.32 in 10.0 mi ENE 9.2 mph 17.3 mph N/A   Scattered Clouds
3:15 PM 77.0 °F 55.4 °F 47% 30.32 in 10.0 mi NE 6.9 mph - N/A   Scattered Clouds
3:35 PM 78.8 °F 55.4 °F 44% 30.31 in 10.0 mi NE 10.4 mph 16.1 mph N/A   Mostly Cloudy
4:15 PM 77.0 °F 55.4 °F 47% 30.31 in 10.0 mi ENE 11.5 mph 18.4 mph N/A   Scattered Clouds
4:35 PM 77.0 °F 55.4 °F 47% 30.31 in 10.0 mi NE 10.4 mph - N/A   Mostly Cloudy
4:55 PM 77.0 °F 57.2 °F 50% 30.30 in 10.0 mi ENE 10.4 mph 16.1 mph N/A   Mostly Cloudy
5:15 PM 75.2 °F 57.2 °F 53% 30.30 in 10.0 mi ENE 9.2 mph 17.3 mph N/A   Scattered Clouds
5:35 PM 75.2 °F 59.0 °F 57% 30.30 in 10.0 mi ENE 9.2 mph - N/A   Clear
5:55 PM 75.2 °F 59.0 °F 57% 30.30 in 10.0 mi ENE 9.2 mph - N/A   Scattered Clouds
6:15 PM 73.4 °F 59.0 °F 61% 30.30 in 10.0 mi ENE 8.1 mph - N/A   Clear
6:35 PM 71.6 °F 59.0 °F 64% 30.29 in 10.0 mi NE 8.1 mph - N/A   Clear
6:55 PM 71.6 °F 59.0 °F 64% 30.30 in 10.0 mi NE 4.6 mph - N/A   Clear
7:15 PM 69.8 °F 59.0 °F 68% 30.29 in 10.0 mi NE 4.6 mph - N/A   Clear
7:55 PM 69.8 °F 59.0 °F 68% 30.29 in 10.0 mi NNE 4.6 mph - N/A   Clear
8:15 PM 69.8 °F 59.0 °F 68% 30.29 in 10.0 mi NNE 3.5 mph - N/A   Clear
8:55 PM 68.0 °F 59.0 °F 73% 30.30 in 10.0 mi NNE 4.6 mph - N/A   Clear
9:15 PM 68.0 °F 59.0 °F 73% 30.30 in 10.0 mi NE 5.8 mph - N/A   Clear
9:35 PM 68.0 °F 59.0 °F 73% 30.30 in 10.0 mi NE 6.9 mph - N/A   Clear
10:15 PM 66.2 °F 59.0 °F 78% 30.30 in 10.0 mi NE 6.9 mph - N/A   Clear
10:35 PM 66.2 °F 57.2 °F 73% 30.30 in 10.0 mi NE 8.1 mph - N/A   Clear
11:15 PM 64.4 °F 55.4 °F 73% 30.30 in 10.0 mi NE 8.1 mph - N/A   Clear
11:35 PM 64.4 °F 55.4 °F 73% 30.30 in 10.0 mi NE 5.8 mph - N/A   Clear